DMSP 5D-2 F13 DEB, 40500

Orbit data source: Space-Track

DMSP 5D-2 F13 DEB, 40500 is space debris in SSO originally from a launch on Fri, 24 Mar 1995 UTC launched from the Air Force Western Test Range (AFWTR). Debris objects in space refer to the collection of defunct objects orbiting the Earth. Examples of debris include non-operational satellites, rocket bodies, and fragments generated from explosions, collisions, or faulty payload assembly.

Loading next visibility...
Identifier
40500, 1995-015CP
Orbit
SSO
Country
Flag of USUS
Related business
Manufacturer
Unknown
Mission
Spacecraft
Bus & Motor
Unknown
Mass
Unknown
Launch date (UTC)
1995-03-24 (31 years ago)
Launch vehicle
Unknown
Launch site
Air Force Western Test Range (AFWTR)
Object type
Payload
Rocket body
Debris
Shape & HBR
Unknown shape, 0.1 m
Radar Cross Section
Small (<0.1 m²)

Expand to show TLE details & history
Last TLE update: 3 days ago

TLE from 3 days ago
0 DMSP 5D-2 F13 DEB
1 40500U 95015CP  25299.44639862  .00042474  00000-0  63155-2 0  9991
2 40500  98.7954  10.6441 0013342 164.9660 195.1946 14.74728027551798
Epoch: 2025-10-26T10:42Z
TLE epoch observation values (Epoch: 2025-10-26T10:42:48.840Z)
Latitude
0.00002°
Longitude
174.87812°
Altitude
658.048 km
Speed
7.524 km/s
True Right ascension
00h 42m 34s
True Declination
0° 00' 00"
Sunlit
Object was in full shadow at epoch
Visualization orbit readout
Latitude
Unknown
Longitude
Unknown
Altitude
Unknown
Speed
Unknown
Apparent Right ascension
Unknown
Apparent Declination
Unknown
Sunlit
N/A
Visualization observer readout
Local Sidereal Time
00:05:12
Azimuth
Unknown
Elevation
Unknown
Doppler factor
Unknown
Orbital elements
Apogee altitude
652.473 km
Perigee altitude
633.737 km
Semi-major axis
7,021.242 km
Eccentricity
0.00133
Inclination
98.7954°
RAAN
10.6441°
Arg. of periapsis
164.966°
True anomaly
195.15459°
Mean anomaly
195.1946°
Eccentric anomaly
195.17459°
Mean motion
3.68912 °/min
Orbital period
97.58 mins
BSTAR
0.0063155

Documentation

Showing up to 5 results
|